Location: Mesa Verde
(33.6055°N, 114.7275°W)
Time: 11:24:31
(UTC+00:00)

N. Korean satellite - Visible Passes

Search period start: 29 November 2022 00:00
Search period end: 09 December 2022 00:00
Orbit: 421 x 454 km, 97.3° (Epoch: 28 November)

Date Brightness Start Highest point End Pass type
(mag) Time Alt. Az. Time Alt. Az. Time Alt. Az.
29 Nov 6.3 13:01:31 10° N 13:04:55 67° WNW 13:08:15 10° SSW visible
30 Nov 9.6 01:00:10 10° SW 01:02:33 18° W 01:04:58 10° NW visible
30 Nov 8.5 12:23:11 10° NE 12:26:11 28° E 12:29:09 10° SSE visible
30 Nov 8.4 13:57:14 10° NW 13:58:21 11° WNW 13:59:29 10° W visible
01 Dec 6.8 13:16:42 10° N 13:19:53 38° WNW 13:23:02 10° SW visible
02 Dec 10.0 01:16:29 10° WSW 01:17:38 11° W 01:18:47 10° WNW visible
02 Dec 7.3 12:37:52 10° NNE 12:41:10 48° E 12:44:26 10° S visible
03 Dec 9.7 12:00:33 10° ENE 12:02:13 13° E 12:03:52 10° ESE visible
03 Dec 7.5 13:31:56 10° NNW 13:34:41 23° WNW 13:37:24 10° SW visible
04 Dec 6.3 12:52:35 10° NNE 12:55:59 86° ESE 12:59:19 10° S visible
05 Dec 9.0 12:14:25 10° NE 12:17:02 21° E 12:19:37 10° SSE visible
05 Dec 8.1 13:47:19 10° NW 13:49:19 15° WNW 13:51:17 10° WSW visible
06 Dec 6.4 13:07:19 10° N 13:10:37 54° WNW 13:13:52 10° SSW visible
07 Dec 9.7 01:06:04 10° SW 01:08:11 16° W 01:10:19 10° NW visible
07 Dec 8.1 12:28:35 10° NNE 12:31:41 33° E 12:34:43 10° SSE visible
08 Dec 7.0 13:22:03 10° N 13:25:05 32° WNW 13:28:04 10° SW visible
